| time (UTC) | temp C | wind direction | speed KPH | gust KPH | rain 1hr cm | rain 24hr cm | rain mn cm | humidity % | barometer mb |
| 20260504184528 | 26 | 244 | 20.9 | 48.3 | 0.00 | 0.00 | 0.00 | 37 | 1009.5 |
| 20260504184023 | 26 | 229 | 16.1 | 41.8 | 0.00 | 0.00 | 0.00 | 38 | 1009.6 |
| 20260504183521 | 26 | 274 | 24.1 | 33.8 | 0.00 | 0.00 | 0.00 | 38 | 1009.6 |
| 20260504183019 | 26 | 265 | 33.8 | 37.0 | 0.00 | 0.00 | 0.00 | 38 | 1009.8 |
| 20260504182515 | 26 | 231 | 27.4 | 33.8 | 0.00 | 0.00 | 0.00 | 38 | 1009.8 |
| 20260504182013 | 26 | 241 | 20.9 | 51.5 | 0.00 | 0.00 | 0.00 | 39 | 1010.0 |
| 20260504181510 | 26 | 237 | 16.1 | 37.0 | 0.00 | 0.00 | 0.00 | 36 | 1009.9 |
| 20260504181008 | 26 | 220 | 24.1 | 30.6 | 0.00 | 0.00 | 0.00 | 36 | 1010.0 |
| 20260504180507 | 25 | 237 | 19.3 | 33.8 | 0.00 | 0.00 | 0.00 | 39 | 1010.3 |
| 20260504180005 | 25 | 247 | 25.7 | 35.4 | 0.00 | 0.00 | 0.00 | 39 | 1010.2 |
| 20260504175502 | 25 | 253 | 24.1 | 49.9 | 0.00 | 0.00 | 0.00 | 38 | 1010.1 |
| 20260504174959 | 25 | 239 | 17.7 | 41.8 | 0.00 | 0.00 | 0.00 | 40 | 1010.1 |
| 20260504174456 | 25 | 251 | 19.3 | 35.4 | 0.00 | 0.00 | 0.00 | 38 | 1010.4 |
| 20260504173954 | 25 | 216 | 25.7 | 33.8 | 0.00 | 0.00 | 0.00 | 37 | 1010.4 |
| 20260504173450 | 25 | 233 | 20.9 | 45.1 | 0.00 | 0.00 | 0.00 | 38 | 1010.5 |
| 20260504172947 | 25 | 225 | 38.6 | 48.3 | 0.00 | 0.00 | 0.00 | 38 | 1010.6 |
| 20260504172443 | 25 | 247 | 19.3 | 37.0 | 0.00 | 0.00 | 0.00 | 38 | 1010.4 |
| 20260504171940 | 25 | 256 | 9.7 | 40.2 | 0.00 | 0.00 | 0.00 | 38 | 1010.4 |
| 20260504171437 | 25 | 242 | 33.8 | 38.6 | 0.00 | 0.00 | 0.00 | 39 | 1010.5 |
| 20260504170934 | 25 | 242 | 17.7 | 59.5 | 0.00 | 0.00 | 0.00 | 39 | 1010.4 |
| 20260504170430 | 25 | 247 | 11.3 | 40.2 | 0.00 | 0.00 | 0.00 | 39 | 1010.4 |
| 20260504160349 | 25 | 258 | 14.5 | 35.4 | 0.00 | 0.00 | 0.00 | 40 | 1011.1 |
| 20260504150814 | 22 | 251 | 14.5 | 32.2 | 0.00 | 0.00 | 0.00 | 52 | 1011.7 |
| 20260504150311 | 22 | 240 | 20.9 | 25.7 | 0.00 | 0.00 | 0.00 | 52 | 1011.5 |
| 20260504141241 | 20 | 236 | 11.3 | 24.1 | 0.00 | 0.00 | 0.00 | 62 | 1012.2 |
| 20260504140737 | 20 | 233 | 14.5 | 25.7 | 0.00 | 0.00 | 0.00 | 63 | 1012.1 |
| 20260504140233 | 20 | 254 | 6.4 | 14.5 | 0.00 | 0.00 | 0.00 | 65 | 1012.1 |
| 20260504130702 | 17 | 255 | 9.7 | 22.5 | 0.00 | 0.00 | 0.00 | 73 | 1012.3 |
| 20260504130157 | 17 | 239 | 11.3 | 19.3 | 0.00 | 0.00 | 0.00 | 74 | 1012.0 |
| 20260504120122 | 15 | 242 | 4.8 | 9.7 | 0.00 | 0.00 | 0.00 | 79 | 1012.1 |
| 20260504110549 | 15 | 243 | 4.8 | 12.9 | 0.00 | 0.00 | 0.00 | 76 | 1011.5 |
| 20260504100511 | 16 | 259 | 3.2 | 14.5 | 0.00 | 0.00 | 0.00 | 73 | 1011.5 |
| 20260504081904 | 16 | 224 | 11.3 | 24.1 | 0.00 | 0.00 | 0.00 | 67 | 1011.5 |
| 20260504081401 | 16 | 236 | 12.9 | 20.9 | 0.00 | 0.00 | 0.00 | 67 | 1011.4 |
| 20260504080856 | 16 | 233 | 9.7 | 24.1 | 0.00 | 0.00 | 0.00 | 66 | 1011.6 |
| 20260504080354 | 16 | 261 | 8.0 | 14.5 | 0.00 | 0.00 | 0.00 | 67 | 1011.5 |
| 20260504070321 | 17 | 253 | 20.9 | 20.9 | 0.00 | 0.00 | 0.00 | 64 | 1012.3 |
| 20260504060241 | 17 | 242 | 12.9 | 19.3 | 0.00 | 0.00 | 0.00 | 63 | 1013.0 |
| 20260504050710 | 17 | 244 | 9.7 | 14.5 | 0.00 | 0.00 | 0.00 | 64 | 1013.2 |
| 20260504050206 | 17 | 257 | 11.3 | 11.3 | 0.00 | 0.00 | 0.00 | 63 | 1013.2 |
| 20260504045704 | 17 | 233 | 6.4 | 11.3 | 0.00 | 0.00 | 0.00 | 64 | 1013.4 |
| 20260504045204 | 17 | 237 | 8.0 | 20.9 | 0.00 | 0.00 | 0.00 | 64 | 1013.5 |
| 20260504044702 | 17 | 245 | 8.0 | 16.1 | 0.00 | 0.00 | 0.00 | 64 | 1013.5 |
| 20260504044159 | 17 | 240 | 8.0 | 12.9 | 0.00 | 0.00 | 0.00 | 64 | 1013.6 |
| 20260504043656 | 17 | 216 | 4.8 | 16.1 | 0.00 | 0.00 | 0.00 | 63 | 1013.5 |
| 20260504043153 | 17 | 293 | 4.8 | 12.9 | 0.00 | 0.00 | 0.00 | 63 | 1013.4 |
| 20260504042650 | 17 | 253 | 8.0 | 20.9 | 0.00 | 0.00 | 0.00 | 63 | 1013.3 |
| 20260504042147 | 17 | 229 | 8.0 | 14.5 | 0.00 | 0.00 | 0.00 | 63 | 1013.7 |
| 20260504041643 | 18 | 241 | 3.2 | 19.3 | 0.00 | 0.00 | 0.00 | 62 | 1013.4 |
| 20260504041138 | 18 | 245 | 6.4 | 14.5 | 0.00 | 0.00 | 0.00 | 62 | 1013.5 |
| 20260504040636 | 18 | 249 | 4.8 | 16.1 | 0.00 | 0.00 | 0.00 | 62 | 1013.5 |
| 20260504040133 | 17 | 242 | 6.4 | 12.9 | 0.00 | 0.00 | 0.00 | 62 | 1013.6 |
| 20260504035629 | 18 | 251 | 6.4 | 11.3 | 0.00 | 0.00 | 0.00 | 62 | 1013.6 |
| 20260504035126 | 17 | 239 | 8.0 | 14.5 | 0.00 | 0.00 | 0.00 | 63 | 1013.7 |
| 20260504034624 | 17 | 230 | 3.2 | 11.3 | 0.00 | 0.00 | 0.00 | 63 | 1013.5 |
| 20260504034121 | 17 | 208 | 3.2 | 8.0 | 0.00 | 0.00 | 0.00 | 64 | 1013.6 |
| 20260504033619 | 17 | 266 | 4.8 | 9.7 | 0.00 | 0.00 | 0.00 | 64 | 1013.7 |
| 20260504033116 | 17 | 249 | 4.8 | 11.3 | 0.00 | 0.00 | 0.00 | 64 | 1013.6 |
| 20260504032612 | 17 | 238 | 0.0 | 8.0 | 0.00 | 0.00 | 0.00 | 63 | 1013.6 |
| 20260504032109 | 18 | 229 | 4.8 | 9.7 | 0.00 | 0.00 | 0.00 | 63 | 1013.7 |
| 20260504031607 | 17 | 185 | 0.0 | 11.3 | 0.00 | 0.00 | 0.00 | 64 | 1013.6 |
| 20260504031103 | 17 | 237 | 14.5 | 14.5 | 0.00 | 0.00 | 0.00 | 63 | 1013.8 |
| 20260504030600 | 17 | 234 | 3.2 | 9.7 | 0.00 | 0.00 | 0.00 | 64 | 1013.7 |
| 20260504030056 | 17 | 241 | 4.8 | 8.0 | 0.00 | 0.00 | 0.00 | 64 | 1013.8 |
| 20260504025553 | 17 | 239 | 4.8 | 9.7 | 0.00 | 0.00 | 0.00 | 64 | 1013.9 |
| 20260504025050 | 17 | 238 | 3.2 | 9.7 | 0.00 | 0.00 | 0.00 | 64 | 1013.8 |
| 20260504024547 | 17 | 252 | 4.8 | 11.3 | 0.00 | 0.00 | 0.00 | 64 | 1013.9 |
| 20260504024044 | 18 | 204 | 3.2 | 11.3 | 0.00 | 0.00 | 0.00 | 64 | 1013.7 |
| 20260504023540 | 18 | 229 | 4.8 | 9.7 | 0.00 | 0.00 | 0.00 | 64 | 1013.6 |
| 20260504023036 | 18 | 241 | 3.2 | 12.9 | 0.00 | 0.00 | 0.00 | 63 | 1013.6 |
| 20260504022532 | 18 | 246 | 4.8 | 14.5 | 0.00 | 0.00 | 0.00 | 62 | 1013.9 |
| 20260504022029 | 18 | 247 | 6.4 | 11.3 | 0.00 | 0.00 | 0.00 | 62 | 1013.6 |
| 20260504021526 | 18 | 235 | 6.4 | 12.9 | 0.00 | 0.00 | 0.00 | 61 | 1013.6 |
| 20260504021023 | 18 | 231 | 6.4 | 11.3 | 0.00 | 0.00 | 0.00 | 60 | 1013.5 |
| 20260504020520 | 18 | 238 | 8.0 | 14.5 | 0.00 | 0.00 | 0.00 | 60 | 1013.6 |
| 20260504020017 | 18 | 243 | 6.4 | 11.3 | 0.00 | 0.00 | 0.00 | 59 | 1013.4 |
| 20260504015513 | 18 | 222 | 4.8 | 14.5 | 0.00 | 0.00 | 0.00 | 58 | 1013.6 |
| 20260504015009 | 18 | 269 | 4.8 | 11.3 | 0.00 | 0.00 | 0.00 | 58 | 1013.5 |
| 20260504014505 | 18 | 249 | 6.4 | 9.7 | 0.00 | 0.00 | 0.00 | 57 | 1013.3 |
| 20260504014003 | 19 | 246 | 4.8 | 11.3 | 0.00 | 0.00 | 0.00 | 57 | 1013.4 |
| 20260504013501 | 19 | 210 | 4.8 | 14.5 | 0.00 | 0.00 | 0.00 | 56 | 1013.3 |
| 20260504012956 | 19 | 238 | 8.0 | 11.3 | 0.00 | 0.00 | 0.00 | 55 | 1013.4 |
| 20260504012454 | 19 | 253 | 9.7 | 12.9 | 0.00 | 0.00 | 0.00 | 54 | 1013.4 |
| 20260504011952 | 20 | 245 | 9.7 | 19.3 | 0.00 | 0.00 | 0.00 | 54 | 1013.4 |
| 20260504011448 | 20 | 217 | 3.2 | 12.9 | 0.00 | 0.00 | 0.00 | 53 | 1013.5 |
| 20260504010944 | 20 | 241 | 8.0 | 12.9 | 0.00 | 0.00 | 0.00 | 52 | 1013.3 |
| 20260504010440 | 20 | 260 | 11.3 | 14.5 | 0.00 | 0.00 | 0.00 | 51 | 1013.3 |
| 20260504005936 | 20 | 267 | 8.0 | 17.7 | 0.00 | 0.00 | 0.00 | 51 | 1013.2 |
| 20260504005433 | 20 | 256 | 8.0 | 14.5 | 0.00 | 0.00 | 0.00 | 50 | 1013.5 |
| 20260504004931 | 20 | 239 | 6.4 | 9.7 | 0.00 | 0.00 | 0.00 | 50 | 1013.4 |
| 20260504004428 | 20 | 229 | 8.0 | 12.9 | 0.00 | 0.00 | 0.00 | 49 | 1013.3 |
| 20260504003925 | 20 | 245 | 8.0 | 11.3 | 0.00 | 0.00 | 0.00 | 49 | 1013.3 |
| 20260504003421 | 20 | 246 | 9.7 | 16.1 | 0.00 | 0.00 | 0.00 | 49 | 1013.5 |
| 20260504002918 | 21 | 227 | 8.0 | 16.1 | 0.00 | 0.00 | 0.00 | 47 | 1013.3 |
| 20260504002415 | 21 | 269 | 9.7 | 22.5 | 0.00 | 0.00 | 0.00 | 46 | 1013.7 |
| 20260504001913 | 21 | 248 | 9.7 | 25.7 | 0.00 | 0.00 | 0.00 | 45 | 1013.8 |
| 20260504001410 | 21 | 255 | 9.7 | 12.9 | 0.00 | 0.00 | 0.00 | 45 | 1013.4 |
| 20260504000906 | 21 | 231 | 8.0 | 24.1 | 0.00 | 0.00 | 0.00 | 44 | 1013.6 |
| 20260504000404 | 21 | 247 | 9.7 | 19.3 | 0.00 | 0.00 | 0.00 | 44 | 1013.7 |
| 20260503235901 | 21 | 247 | 6.4 | 20.9 | 0.00 | 0.00 | 0.00 | 44 | 1013.5 |
| 20260503235359 | 22 | 248 | 17.7 | 25.7 | 0.00 | 0.00 | 0.00 | 43 | 1014.0 |
| 20260503234856 | 22 | 247 | 12.9 | 17.7 | 0.00 | 0.00 | 0.00 | 42 | 1013.8 |
| 20260503234354 | 22 | 238 | 24.1 | 35.4 | 0.00 | 0.00 | 0.00 | 41 | 1013.7 |
| 20260503233851 | 22 | 233 | 12.9 | 25.7 | 0.00 | 0.00 | 0.00 | 41 | 1013.8 |
| 20260503233347 | 22 | 246 | 9.7 | 30.6 | 0.00 | 0.00 | 0.00 | 41 | 1013.7 |
| 20260503232844 | 22 | 215 | 27.4 | 27.4 | 0.00 | 0.00 | 0.00 | 40 | 1013.8 |
| 20260503232341 | 22 | 235 | 8.0 | 27.4 | 0.00 | 0.00 | 0.00 | 41 | 1014.2 |
| 20260503231839 | 22 | 255 | 8.0 | 19.3 | 0.00 | 0.00 | 0.00 | 40 | 1014.4 |
| 20260503231336 | 22 | 253 | 6.4 | 20.9 | 0.00 | 0.00 | 0.00 | 40 | 1014.7 |
| 20260503230832 | 22 | 237 | 14.5 | 25.7 | 0.00 | 0.00 | 0.00 | 39 | 1014.4 |
| 20260503230329 | 22 | 254 | 9.7 | 22.5 | 0.00 | 0.00 | 0.00 | 39 | 1014.4 |
| 20260503225827 | 22 | 258 | 12.9 | 17.7 | 0.00 | 0.00 | 0.00 | 39 | 1014.4 |
| 20260503225322 | 22 | 260 | 9.7 | 20.9 | 0.00 | 0.00 | 0.00 | 37 | 1014.4 |
| 20260503224818 | 22 | 241 | 12.9 | 27.4 | 0.00 | 0.00 | 0.00 | 37 | 1014.7 |
| 20260503224316 | 22 | 262 | 9.7 | 24.1 | 0.00 | 0.00 | 0.00 | 38 | 1014.4 |
| 20260503223814 | 22 | 240 | 9.7 | 20.9 | 0.00 | 0.00 | 0.00 | 36 | 1014.7 |
| 20260503223311 | 22 | 231 | 14.5 | 32.2 | 0.00 | 0.00 | 0.00 | 36 | 1014.6 |
| 20260503222807 | 22 | 239 | 9.7 | 25.7 | 0.00 | 0.00 | 0.00 | 36 | 1014.6 |
| 20260503222306 | 22 | 233 | 16.1 | 25.7 | 0.00 | 0.00 | 0.00 | 35 | 1014.8 |
| 20260503221803 | 22 | 239 | 20.9 | 20.9 | 0.00 | 0.00 | 0.00 | 34 | 1014.7 |
| 20260503221301 | 22 | 245 | 12.9 | 24.1 | 0.00 | 0.00 | 0.00 | 35 | 1014.8 |
| 20260503220757 | 23 | 249 | 22.5 | 22.5 | 0.00 | 0.00 | 0.00 | 34 | 1014.9 |
| 20260503220254 | 23 | 257 | 11.3 | 19.3 | 0.00 | 0.00 | 0.00 | 34 | 1014.7 |
| 20260503215751 | 22 | 246 | 9.7 | 24.1 | 0.00 | 0.00 | 0.00 | 35 | 1014.7 |
| 20260503215248 | 22 | 246 | 19.3 | 24.1 | 0.00 | 0.00 | 0.00 | 35 | 1014.8 |
| 20260503214746 | 22 | 248 | 14.5 | 27.4 | 0.00 | 0.00 | 0.00 | 34 | 1014.9 |
| 20260503214242 | 22 | 277 | 9.7 | 20.9 | 0.00 | 0.00 | 0.00 | 34 | 1015.2 |
| 20260503213741 | 22 | 260 | 11.3 | 27.4 | 0.00 | 0.00 | 0.00 | 34 | 1015.1 |
| 20260503213238 | 22 | 262 | 11.3 | 17.7 | 0.00 | 0.00 | 0.00 | 34 | 1015.4 |
| 20260503212734 | 22 | 258 | 11.3 | 20.9 | 0.00 | 0.00 | 0.00 | 34 | 1015.3 |
| 20260503212232 | 22 | 228 | 11.3 | 29.0 | 0.00 | 0.00 | 0.00 | 32 | 1015.4 |
| 20260503211730 | 22 | 266 | 14.5 | 19.3 | 0.00 | 0.00 | 0.00 | 33 | 1015.4 |
| 20260503211225 | 22 | 242 | 20.9 | 27.4 | 0.00 | 0.00 | 0.00 | 33 | 1015.7 |
| 20260503210721 | 22 | 239 | 14.5 | 24.1 | 0.00 | 0.00 | 0.00 | 33 | 1015.6 |
| 20260503210219 | 22 | 273 | 14.5 | 22.5 | 0.00 | 0.00 | 0.00 | 32 | 1015.9 |
| 20260503205714 | 22 | 244 | 16.1 | 24.1 | 0.00 | 0.00 | 0.00 | 32 | 1016.0 |
| 20260503205210 | 22 | 240 | 8.0 | 22.5 | 0.00 | 0.00 | 0.00 | 31 | 1016.0 |
| 20260503204707 | 22 | 240 | 11.3 | 30.6 | 0.00 | 0.00 | 0.00 | 32 | 1016.1 |
| 20260503204205 | 22 | 232 | 19.3 | 41.8 | 0.00 | 0.00 | 0.00 | 32 | 1016.0 |
| 20260503203702 | 22 | 213 | 8.0 | 24.1 | 0.00 | 0.00 | 0.00 | 33 | 1016.2 |
| 20260503203159 | 22 | 278 | 17.7 | 22.5 | 0.00 | 0.00 | 0.00 | 33 | 1016.6 |
| 20260503202656 | 22 | 275 | 11.3 | 17.7 | 0.00 | 0.00 | 0.00 | 31 | 1016.6 |
| 20260503202154 | 22 | 245 | 12.9 | 30.6 | 0.00 | 0.00 | 0.00 | 31 | 1016.8 |
| 20260503201652 | 22 | 230 | 9.7 | 17.7 | 0.00 | 0.00 | 0.00 | 32 | 1016.7 |
| 20260503201149 | 21 | 243 | 14.5 | 35.4 | 0.00 | 0.00 | 0.00 | 32 | 1016.8 |
| 20260503200645 | 22 | 245 | 9.7 | 22.5 | 0.00 | 0.00 | 0.00 | 34 | 1017.0 |
| 20260503200142 | 21 | 229 | 12.9 | 22.5 | 0.00 | 0.00 | 0.00 | 34 | 1017.0 |
| 20260503195639 | 21 | 226 | 8.0 | 25.7 | 0.00 | 0.00 | 0.00 | 32 | 1017.1 |
| 20260503195136 | 21 | 231 | 9.7 | 25.7 | 0.00 | 0.00 | 0.00 | 34 | 1017.5 |
| 20260503194633 | 21 | 235 | 9.7 | 22.5 | 0.00 | 0.00 | 0.00 | 36 | 1017.5 |
| 20260503194128 | 21 | 241 | 12.9 | 30.6 | 0.00 | 0.00 | 0.00 | 37 | 1017.7 |
| 20260503193625 | 21 | 257 | 8.0 | 24.1 | 0.00 | 0.00 | 0.00 | 36 | 1017.7 |
| 20260503193121 | 21 | 228 | 11.3 | 25.7 | 0.00 | 0.00 | 0.00 | 36 | 1018.0 |
| 20260503192616 | 21 | 244 | 8.0 | 20.9 | 0.00 | 0.00 | 0.00 | 36 | 1017.9 |
| 20260503192112 | 21 | 250 | 9.7 | 20.9 | 0.00 | 0.00 | 0.00 | 38 | 1018.1 |
| 20260503191610 | 21 | 281 | 14.5 | 24.1 | 0.00 | 0.00 | 0.00 | 37 | 1018.1 |
| 20260503191106 | 20 | 277 | 17.7 | 27.4 | 0.00 | 0.00 | 0.00 | 37 | 1018.1 |
| 20260503190604 | 21 | 284 | 9.7 | 22.5 | 0.00 | 0.00 | 0.00 | 37 | 1018.2 |
| 20260503190101 | 20 | 240 | 3.2 | 24.1 | 0.00 | 0.00 | 0.00 | 40 | 1018.7 |
| 20260503185557 | 21 | 247 | 9.7 | 27.4 | 0.00 | 0.00 | 0.00 | 38 | 1018.6 |
| 20260503185056 | 20 | 230 | 17.7 | 22.5 | 0.00 | 0.00 | 0.00 | 37 | 1018.7 |